Kuiper-00153

operational
NORAD ID: 65773 Int'l Des: 2025-217 Owner: KUIP Country: US Constellation: kuiper
NOTLE

Kuiper-00153について

説明を読み込み中...

リアルタイム位置

3D地球を読み込み中...

次回通過

高度履歴

Altitude vs Time

uPlot chart will show altitude changes over time

軌道要素

1 65773U 25217M 25340.61335670 .00017907 00000-0 10742-2 0 9990
2 65773 51.8781 100.5606 0012398 358.5957 1.4982 15.10940088 11016
Epoch: Dec 6, 2025 • Age: 31 hours

現在のステータス

高度 552.2 km
速度 7.58 km/s
衛星直下点 -43.58°S, 83.59°W
打ち上げ日 Sep 25, 2025
運用期間 0.1 years
タイプ internet

技術仕様

分類 Payload
質量 490.00 kg
乾燥質量 490.00 kg
総質量 490.00 kg
長さ 1.80 m
直径 0.70 m
スパン 5.00 m
形状 Box + 2 pan
製造者 KUIP
バスタイプ Kuiper
フェーズステータス In Orbit
所有者/国 KUIP/US

大規模コンステレーション

Loading constellations...